Location: St. Louis
(38.6270°N, 90.1994°W)
Time: 06:27:32
(UTC-06:00)

Vanguard 2 Rocket - Pass Details

Date: 29 November 2021
Orbit: 554 x 3325 km, 32.9° (Epoch: 21 January)

Event Time Altitude Azimuth Distance (km) Brightness Sun altitude
Rises 20:39:26 0° 258° (WSW) 4,125 10.9 -46.1°
Reaches altitude 10° 20:41:45 10° 256° (WSW) 3,428 10.3 -46.6°
Enters shadow 20:46:50 43° 240° (WSW) 2,274 8.9 -47.6°
